sat.trackr.live / text

‹ back to catalog

STARLINK-36124

NORAD 67121 · 2025-299V

PAYLOAD ACTIVE UNKNOWN

§ Identity

Operator
Country
US
Launch date
2025-12-15
Launch site
AFETR
Launch vehicle
Mass (kg)
RCS (m²)

Purposes: comms

External: N2YO · Heavens-Above · Gunter

§ Orbital elements

Epoch: 2026-05-24T23:42:55.740096Z

Period
94.27 min
Inclination
43.0044°
Eccentricity
0.0001084
Mean motion
15.27589003 rev/d
Perigee alt
482.3 km
Apogee alt
483.8 km
Semi-major
6,861.2 km
B*
6.2054e-4
RAAN
98.2198°
Arg perigee
261.4637°
Mean anomaly
98.6092°
Rev number
2,478

§ Raw data

STARLINK-361241 67121U 25299V   26144.98814514  .00016857  00000+0  62054-3 0  99972 67121  43.0044  98.2198 0001084 261.4637  98.6092 15.27589003 24788

JSON: /api/v1/satellites/67121 · /tle

For live sub-satellite position, see the globe view (requires WebGL).

§ Visibility from observer

Set your observer location to see the next 7 days of passes ≥ 10°. The values pass through the URL so the page stays shareable.

No JS? Fill the form by hand. The geolocation button needs JavaScript.